DLH6YM EDDF-EDDN

Flight info

Callsign DLH6YM
Flight time 0h 30m
Altitude 19000
Route CINDY8S/18 CINDY Z74 HAREM T104 ELMOX DCT LETKU LETKU1V
Aircraft A319/M-SDE3FGHIRWY/LB1

Departure

Time 2026-05-05 15:29
Airport Frankfurt Main Airport (EDDF)

Arrival

Time 2026-05-05 15:59
Airport Nuremberg Airport (EDDN)
Time Latitude Longitude Altitude Speed Heading
2026-05-05 14:32 50.04908 8.58867 365 ft 0 kts 160°
2026-05-05 15:14 50.04912 8.58865 362 ft 3 kts 160°
2026-05-05 15:15 50.04937 8.58851 363 ft 4 kts 160°
2026-05-05 15:15 50.04957 8.58841 360 ft 4 kts 193°
2026-05-05 15:15 50.04975 8.58863 363 ft 3 kts 250°
2026-05-05 15:15 50.04980 8.58888 360 ft 1 kts 250°
2026-05-05 15:19 50.04977 8.58873 360 ft 3 kts 249°
2026-05-05 15:19 50.04967 8.58832 363 ft 6 kts 249°
2026-05-05 15:19 50.04948 8.58754 360 ft 9 kts 250°
2026-05-05 15:19 50.04925 8.58658 363 ft 10 kts 249°
2026-05-05 15:20 50.04900 8.58552 365 ft 11 kts 250°
2026-05-05 15:20 50.04868 8.58423 363 ft 15 kts 249°
2026-05-05 15:20 50.04829 8.58258 364 ft 17 kts 250°
2026-05-05 15:20 50.04788 8.58084 359 ft 16 kts 249°
2026-05-05 15:21 50.04746 8.57951 363 ft 13 kts 229°
2026-05-05 15:21 50.04694 8.57845 358 ft 11 kts 246°
2026-05-05 15:21 50.04673 8.57755 358 ft 7 kts 249°
2026-05-05 15:21 50.04656 8.57686 361 ft 7 kts 249°
2026-05-05 15:22 50.04638 8.57609 359 ft 10 kts 250°
2026-05-05 15:22 50.04606 8.57476 360 ft 15 kts 249°
2026-05-05 15:22 50.04569 8.57323 362 ft 15 kts 249°
2026-05-05 15:22 50.04529 8.57158 359 ft 17 kts 249°
2026-05-05 15:23 50.04485 8.56969 364 ft 19 kts 250°
2026-05-05 15:23 50.04442 8.56786 365 ft 18 kts 250°
2026-05-05 15:23 50.04395 8.56590 360 ft 20 kts 249°
2026-05-05 15:23 50.04346 8.56387 356 ft 20 kts 250°
2026-05-05 15:24 50.04294 8.56168 360 ft 24 kts 250°
2026-05-05 15:24 50.04233 8.55913 356 ft 25 kts 249°
2026-05-05 15:24 50.04170 8.55651 352 ft 26 kts 250°
2026-05-05 15:24 50.04109 8.55395 358 ft 25 kts 249°
2026-05-05 15:25 50.04051 8.55153 360 ft 22 kts 250°
2026-05-05 15:25 50.03996 8.54926 357 ft 23 kts 249°
2026-05-05 15:25 50.03940 8.54690 350 ft 21 kts 250°
2026-05-05 15:25 50.03889 8.54476 351 ft 22 kts 250°
2026-05-05 15:26 50.03829 8.54302 350 ft 19 kts 235°
2026-05-05 15:26 50.03772 8.54107 351 ft 22 kts 249°
2026-05-05 15:26 50.03718 8.53879 351 ft 23 kts 249°
2026-05-05 15:26 50.03661 8.53647 343 ft 23 kts 249°
2026-05-05 15:27 50.03604 8.53411 335 ft 24 kts 249°
2026-05-05 15:27 50.03545 8.53169 334 ft 24 kts 249°
2026-05-05 15:27 50.03487 8.52931 336 ft 23 kts 248°
2026-05-05 15:27 50.03458 8.52818 335 ft 9 kts 248°
2026-05-05 15:28 50.03427 8.52702 333 ft 14 kts 248°
2026-05-05 15:28 50.03399 8.52606 333 ft 9 kts 227°
2026-05-05 15:28 50.03340 8.52594 336 ft 9 kts 179°
2026-05-05 15:28 50.03247 8.52595 334 ft 33 kts 179°
2026-05-05 15:29 50.02737 8.52598 336 ft 110 kts 179°
2026-05-05 15:29 50.01762 8.52605 459 ft 155 kts 182°
2026-05-05 15:29 50.00713 8.52613 1272 ft 149 kts 182°
2026-05-05 15:29 49.99662 8.52655 1933 ft 158 kts 181°
2026-05-05 15:30 49.98484 8.52671 2364 ft 180 kts 182°
2026-05-05 15:30 49.97173 8.53049 2743 ft 207 kts 159°
2026-05-05 15:30 49.95988 8.54522 3202 ft 232 kts 127°
2026-05-05 15:30 49.95182 8.56724 4139 ft 236 kts 121°
2026-05-05 15:31 49.94403 8.58982 5119 ft 240 kts 115°
2026-05-05 15:31 49.94003 8.61564 5876 ft 259 kts 96°
2026-05-05 15:31 49.93893 8.64458 6556 ft 276 kts 95°
2026-05-05 15:31 49.93595 8.67426 7475 ft 280 kts 110°
2026-05-05 15:32 49.92710 8.70105 8484 ft 280 kts 125°
2026-05-05 15:32 49.91632 8.72639 9556 ft 282 kts 125°
2026-05-05 15:32 49.90528 8.75233 10245 ft 298 kts 125°
2026-05-05 15:32 49.89340 8.78011 10636 ft 320 kts 125°
2026-05-05 15:33 49.88087 8.80930 11347 ft 329 kts 125°
2026-05-05 15:33 49.86804 8.83916 12202 ft 334 kts 125°
2026-05-05 15:33 49.85506 8.86935 13053 ft 339 kts 125°
2026-05-05 15:33 49.84192 8.89988 13875 ft 343 kts 125°
2026-05-05 15:34 49.82879 8.93037 14596 ft 347 kts 125°
2026-05-05 15:34 49.81514 8.96204 15355 ft 350 kts 125°
2026-05-05 15:34 49.80153 8.99354 16092 ft 354 kts 125°
2026-05-05 15:34 49.78796 9.02496 16829 ft 358 kts 126°
2026-05-05 15:35 49.77388 9.05754 17565 ft 362 kts 126°
2026-05-05 15:35 49.75997 9.08964 18267 ft 365 kts 126°
2026-05-05 15:35 49.74573 9.12246 18900 ft 369 kts 126°
2026-05-05 15:35 49.73139 9.15550 19524 ft 372 kts 126°
2026-05-05 15:36 49.71689 9.18890 20166 ft 375 kts 126°
2026-05-05 15:36 49.70224 9.22256 20671 ft 379 kts 126°
2026-05-05 15:36 49.68755 9.25624 20812 ft 378 kts 126°
2026-05-05 15:36 49.67286 9.28989 20841 ft 377 kts 126°
2026-05-05 15:37 49.65961 9.32473 20845 ft 378 kts 115°
2026-05-05 15:37 49.64999 9.36256 20844 ft 379 kts 113°
2026-05-05 15:37 49.64054 9.40056 20843 ft 379 kts 113°
2026-05-05 15:37 49.63112 9.43860 20844 ft 379 kts 113°
2026-05-05 15:38 49.62173 9.47658 20847 ft 379 kts 113°
2026-05-05 15:38 49.61233 9.51457 20841 ft 379 kts 113°
2026-05-05 15:38 49.60291 9.55253 20846 ft 379 kts 113°
2026-05-05 15:38 49.59344 9.59055 20849 ft 379 kts 113°
2026-05-05 15:39 49.58396 9.62848 20852 ft 379 kts 113°
2026-05-05 15:39 49.57445 9.66640 20854 ft 379 kts 114°
2026-05-05 15:39 49.56490 9.70436 20855 ft 379 kts 114°
2026-05-05 15:39 49.55536 9.74216 20858 ft 379 kts 114°
2026-05-05 15:40 49.54591 9.77961 20860 ft 379 kts 114°
2026-05-05 15:40 49.53636 9.81751 20864 ft 380 kts 114°
2026-05-05 15:40 49.52682 9.85534 20862 ft 380 kts 114°
2026-05-05 15:40 49.51722 9.89332 20867 ft 380 kts 114°
2026-05-05 15:41 49.50768 9.93110 20867 ft 379 kts 114°
2026-05-05 15:41 49.49811 9.96895 20864 ft 380 kts 114°
2026-05-05 15:41 49.48848 10.00683 20859 ft 380 kts 114°
2026-05-05 15:41 49.47887 10.04451 20646 ft 376 kts 114°
2026-05-05 15:42 49.47068 10.08249 20174 ft 376 kts 103°
2026-05-05 15:42 49.46761 10.12250 19668 ft 376 kts 98°
2026-05-05 15:42 49.46516 10.16240 19138 ft 374 kts 98°
2026-05-05 15:42 49.46279 10.20212 18637 ft 372 kts 98°
2026-05-05 15:43 49.46046 10.24152 18141 ft 370 kts 98°
2026-05-05 15:43 49.45811 10.28082 17592 ft 368 kts 98°
2026-05-05 15:43 49.45574 10.31987 17085 ft 366 kts 98°
2026-05-05 15:43 49.45365 10.35822 16593 ft 364 kts 94°
2026-05-05 15:44 49.45754 10.39655 16107 ft 366 kts 72°
2026-05-05 15:44 49.46823 10.43209 15651 ft 364 kts 68°
2026-05-05 15:44 49.47677 10.46840 15201 ft 359 kts 74°
2026-05-05 15:44 49.48446 10.50480 14759 ft 356 kts 74°
2026-05-05 15:45 49.49202 10.54089 14329 ft 353 kts 74°
2026-05-05 15:45 49.49950 10.57678 13887 ft 351 kts 74°
2026-05-05 15:45 49.50460 10.61309 13439 ft 345 kts 89°
2026-05-05 15:45 49.50430 10.64969 12964 ft 341 kts 94°
2026-05-05 15:46 49.50348 10.68604 12487 ft 338 kts 94°
2026-05-05 15:46 49.50263 10.72207 12029 ft 336 kts 94°
2026-05-05 15:46 49.50182 10.75776 11575 ft 333 kts 94°
2026-05-05 15:46 49.50102 10.79328 11098 ft 331 kts 94°
2026-05-05 15:47 49.50132 10.82864 10653 ft 331 kts 84°
2026-05-05 15:47 49.50520 10.85136 10366 ft 332 kts 70°
2026-05-05 15:47 49.52287 10.89012 9783 ft 334 kts 43°
2026-05-05 15:47 49.54053 10.91333 9323 ft 334 kts 41°
2026-05-05 15:48 49.55824 10.93631 8842 ft 332 kts 41°
2026-05-05 15:48 49.57397 10.96138 8391 ft 328 kts 53°
2026-05-05 15:48 49.58612 10.99081 8028 ft 324 kts 65°
2026-05-05 15:48 49.59431 11.02336 7835 ft 322 kts 76°
2026-05-05 15:49 49.59826 11.05625 7806 ft 311 kts 87°
2026-05-05 15:49 49.59836 11.08935 7808 ft 307 kts 97°
2026-05-05 15:49 49.59539 11.12184 7807 ft 307 kts 101°
2026-05-05 15:49 49.59216 11.15426 7489 ft 303 kts 101°
2026-05-05 15:50 49.58902 11.18601 7156 ft 296 kts 101°
2026-05-05 15:50 49.58596 11.21712 6849 ft 292 kts 101°
2026-05-05 15:50 49.58293 11.24792 6533 ft 291 kts 101°
2026-05-05 15:50 49.57987 11.27874 6215 ft 290 kts 100°
2026-05-05 15:51 49.57681 11.30923 5882 ft 285 kts 100°
2026-05-05 15:51 49.57380 11.33914 5525 ft 279 kts 100°
2026-05-05 15:51 49.57084 11.36850 5174 ft 275 kts 100°
2026-05-05 15:51 49.56792 11.39746 4948 ft 270 kts 100°
2026-05-05 15:52 49.56434 11.42498 4929 ft 255 kts 113°
2026-05-05 15:52 49.55463 11.44630 4942 ft 237 kts 140°
2026-05-05 15:52 49.54230 11.46210 4934 ft 225 kts 144°
2026-05-05 15:52 49.53015 11.47684 4939 ft 221 kts 144°
2026-05-05 15:53 49.51808 11.49143 4929 ft 220 kts 144°
2026-05-05 15:53 49.50504 11.50319 4931 ft 216 kts 169°
2026-05-05 15:53 49.49041 11.50239 4857 ft 210 kts 204°
2026-05-05 15:53 49.47924 11.48894 4740 ft 205 kts 239°
2026-05-05 15:54 49.47489 11.46825 4627 ft 205 kts 262°
2026-05-05 15:54 49.47305 11.44659 4504 ft 204 kts 264°
2026-05-05 15:54 49.47155 11.42507 4380 ft 205 kts 264°
2026-05-05 15:54 49.47007 11.40330 4311 ft 205 kts 264°
2026-05-05 15:55 49.46929 11.38152 4252 ft 205 kts 272°
2026-05-05 15:55 49.47070 11.35974 4208 ft 203 kts 277°
2026-05-05 15:55 49.47270 11.33873 4106 ft 195 kts 277°
2026-05-05 15:55 49.47472 11.31858 3909 ft 189 kts 278°
2026-05-05 15:56 49.47606 11.30516 3762 ft 186 kts 278°
2026-05-05 15:56 49.47802 11.28573 3530 ft 183 kts 278°
2026-05-05 15:56 49.47993 11.26664 3295 ft 178 kts 277°
2026-05-05 15:56 49.48180 11.24798 3070 ft 175 kts 277°
2026-05-05 15:57 49.48363 11.22972 2837 ft 170 kts 278°
2026-05-05 15:57 49.48542 11.21187 2616 ft 169 kts 277°
2026-05-05 15:57 49.48716 11.19436 2395 ft 166 kts 277°
2026-05-05 15:57 49.48887 11.17726 2183 ft 153 kts 278°
2026-05-05 15:58 49.49042 11.16164 1976 ft 145 kts 278°
2026-05-05 15:58 49.49188 11.14667 1748 ft 141 kts 277°
2026-05-05 15:58 49.49335 11.13200 1571 ft 138 kts 276°
2026-05-05 15:58 49.49479 11.11726 1393 ft 141 kts 277°
2026-05-05 15:59 49.49626 11.10236 1190 ft 140 kts 277°
2026-05-05 15:59 49.49772 11.08790 1045 ft 126 kts 277°
2026-05-05 15:59 49.49885 11.07651 1026 ft 85 kts 278°
2026-05-05 15:59 49.49937 11.07129 1021 ft 22 kts 279°
2026-05-05 16:00 49.49925 11.07026 1023 ft 9 kts 213°
2026-05-05 16:00 49.49853 11.07026 1021 ft 12 kts 161°
2026-05-05 16:00 49.49790 11.07064 1021 ft 7 kts 159°
2026-05-05 16:00 49.49752 11.07111 1021 ft 7 kts 125°
2026-05-05 16:01 49.49738 11.07184 1022 ft 7 kts 98°
2026-05-05 16:01 49.49730 11.07264 1022 ft 9 kts 98°
2026-05-05 16:01 49.49720 11.07366 1023 ft 10 kts 98°
2026-05-05 16:01 49.49710 11.07468 1022 ft 10 kts 97°
2026-05-05 16:02 49.49701 11.07569 1022 ft 10 kts 98°
2026-05-05 16:02 49.49690 11.07668 1026 ft 9 kts 100°
2026-05-05 16:02 49.49666 11.07759 1024 ft 9 kts 141°
2026-05-05 16:02 49.49607 11.07753 1027 ft 9 kts 205°
2026-05-05 16:03 49.49542 11.07729 1026 ft 4 kts 188°
2026-05-05 16:03 49.49524 11.07725 1024 ft 1 kts 188°
2026-05-05 16:03 49.49519 11.07724 1025 ft 0 kts 188°